Location: Cuiry
(49.3858°N, 3.7708°E)
Time: 14:44:09
(UTC+00:00)

Meteor 1-21 - Pass Details

Date: 12 January 2026
Orbit: 845 x 885 km, 81.2° (Epoch: 16 February)

Event Time Altitude Azimuth Distance (km) Brightness Sun altitude
Rises 17:52:31 0° 179° (S) 3,406 7.5 -16.1°
Reaches altitude 10° 17:54:57 10° 176° (S) 2,471 6.7 -16.4°
Maximum altitude 18:00:28 62° 97° (E) 950 4.2 -17.3°
Drops below altitude 10° 18:05:59 10° 18° (NNE) 2,478 6.3 -18.2°
Enters shadow 18:07:02 - 16° (NNE) 2,878 6.7 -18.4°
